This demonstration page uses our WeatherBlox Daily Observations layout. Learn more.

Left ArrowRight Arrow

41.86663, -103.66717

Hourly Observations for October 18, 2021

Temp ( °F °C ) Dew Point ( °F °C ) Humidity (%) Winds ( mph kmh ) Pressure ( in mb ) Visibility ( mi km ) Precip ( " mm )
12:53 am 00:53 Clear 43 6.1 30 -1.1 60 60 E 9 15 29.85 1011 10 16 N/A
1:53 am 01:53 Clear 42 5.6 30 -1.1 62 62 SE 6 9 29.82 1010 10 16 N/A
2:53 am 02:53 Clear 39 3.9 30 -1.1 70 70 N N/A 29.80 1009 10 16 N/A
3:53 am 03:53 Clear 38 3.3 30 -1.1 73 73 NNW 5 7 29.80 1009 10 16 N/A
4:53 am 04:53 Clear 37 2.8 29 -1.7 73 73 N N/A 29.80 1009 10 16 N/A
5:53 am 05:53 Clear 35 1.7 29 -1.7 78 78 N 6 9 29.82 1010 10 16 N/A
6:53 am 06:53 Clear 36 2.2 29 -1.7 76 76 ENE 3 6 29.85 1011 10 16 N/A
7:53 am 07:53 Sunny 37 2.8 30 -1.1 76 76 NW 5 7 29.86 1011 10 16 N/A
8:53 am 08:53 Sunny 44 6.7 33 0.6 65 65 NW 5 7 29.85 1011 10 16 N/A
9:53 am 09:53 Sunny 49 9.4 35 1.7 59 59 NW 3 6 29.84 1011 10 16 N/A
10:53 am 10:53 Sunny 59 15 34 1.1 39 39 N N/A 29.80 1009 9 14 N/A
11:53 am 11:53 Hazy 64 17.8 34 1.1 33 33 N N/A 29.76 1008 3 5 N/A
12:53 pm 12:53 Sunny 71 21.7 31 -0.6 23 23 SE 5 7 29.73 1007 10 16 N/A
1:53 pm 13:53 Sunny 74 23.3 33 0.6 22 22 S 3 6 29.70 1006 10 16 N/A
2:53 pm 14:53 Sunny 76 24.4 32 undefined 20 20 undefined N/A 29.67 1005 10 16 N/A
3:53 pm 15:53 Sunny 79 26.1 30 -1.1 17 17 N 6 9 29.66 1004 10 16 N/A
4:53 pm 16:53 Sunny 78 25.6 28 -2.2 16 16 NE 5 7 29.65 1004 10 16 N/A
5:53 pm 17:53 Sunny 66 18.9 36 2.2 33 33 E 7 11 29.69 1005 10 16 N/A
6:53 pm 18:53 Clear 59 15 36 2.2 42 42 undefined N/A 29.73 1007 10 16 N/A
7:53 pm 19:53 Clear 56 13.3 37 2.8 49 49 E 12 19 29.75 1007 10 16 N/A
8:53 pm 20:53 Clear 52 11.1 36 2.2 55 55 SE 6 9 29.75 1008 10 16 N/A
9:53 pm 21:53 Clear 48 8.9 35 1.7 61 61 E 6 9 29.76 1008 10 16 N/A
10:53 pm 22:53 Clear 46 7.8 34 1.1 63 63 undefined N/A 29.73 1007 10 16 N/A

Powered by AerisWeather